| time (UTC) | temp F | wind direction | speed MPH | gust MPH | rain 1hr in | rain 24hr in | rain mn in | humidity % | barometer mb |
| 20260506050932 | 49 | 75 | 1.0 | 1.0 | 0.00 | 0.00 | 0.00 | 56 | 1009.9 |
| 20260506050430 | 49 | 83 | 0.0 | 0.0 | 0.00 | 0.00 | 0.00 | 56 | 1009.9 |
| 20260506044920 | 50 | 80 | 0.0 | 1.0 | 0.00 | 0.08 | 0.08 | 53 | 1009.7 |
| 20260506044418 | 50 | 88 | 0.0 | 0.0 | 0.00 | 0.08 | 0.08 | 56 | 1009.7 |
| 20260506043915 | 50 | 72 | 1.0 | 1.0 | 0.00 | 0.08 | 0.08 | 52 | 1009.8 |
| 20260506043412 | 50 | 85 | 0.0 | 1.0 | 0.00 | 0.08 | 0.08 | 57 | 1009.9 |
| 20260506042910 | 50 | 85 | 0.0 | 1.0 | 0.00 | 0.08 | 0.08 | 58 | 1009.7 |
| 20260506042409 | 50 | 73 | 1.0 | 3.0 | 0.00 | 0.08 | 0.08 | 56 | 1010.0 |
| 20260506041907 | 51 | 84 | 0.0 | 1.0 | 0.00 | 0.08 | 0.08 | 54 | 1009.9 |
| 20260506041404 | 50 | 84 | 1.0 | 3.0 | 0.00 | 0.08 | 0.08 | 54 | 1010.0 |
| 20260506040901 | 51 | 84 | 0.0 | 1.0 | 0.00 | 0.08 | 0.08 | 54 | 1010.1 |
| 20260506040358 | 51 | 30 | 1.0 | 1.0 | 0.00 | 0.08 | 0.08 | 54 | 1010.0 |
| 20260506035854 | 51 | 95 | 0.0 | 1.0 | 0.00 | 0.08 | 0.08 | 55 | 1010.1 |
| 20260506035352 | 51 | 105 | 0.0 | 3.0 | 0.00 | 0.08 | 0.08 | 55 | 1010.1 |
| 20260506034849 | 50 | 84 | 0.0 | 1.0 | 0.00 | 0.08 | 0.08 | 57 | 1010.0 |
| 20260506034346 | 50 | 89 | 0.0 | 0.0 | 0.00 | 0.08 | 0.08 | 62 | 1009.7 |
| 20260506033843 | 49 | 93 | 0.0 | 0.0 | 0.00 | 0.08 | 0.08 | 65 | 1009.8 |
| 20260506033340 | 49 | 96 | 0.0 | 0.0 | 0.00 | 0.08 | 0.08 | 67 | 1009.9 |
| 20260506032837 | 49 | 101 | 0.0 | 0.0 | 0.00 | 0.08 | 0.08 | 65 | 1009.9 |
| 20260506032333 | 49 | 100 | 0.0 | 0.0 | 0.00 | 0.08 | 0.08 | 63 | 1009.5 |
| 20260506031831 | 49 | 96 | 0.0 | 0.0 | 0.00 | 0.08 | 0.08 | 62 | 1009.5 |
| 20260506031328 | 49 | 96 | 0.0 | 0.0 | 0.00 | 0.08 | 0.08 | 63 | 1009.3 |
| 20260506030825 | 49 | 96 | 0.0 | 0.0 | 0.00 | 0.08 | 0.08 | 64 | 1009.3 |
| 20260506030323 | 49 | 96 | 0.0 | 0.0 | 0.00 | 0.08 | 0.08 | 62 | 1009.4 |
| 20260506025820 | 49 | 96 | 0.0 | 0.0 | 0.00 | 0.08 | 0.08 | 63 | 1009.3 |
| 20260506025316 | 50 | 96 | 0.0 | 0.0 | 0.00 | 0.08 | 0.08 | 65 | 1009.3 |
| 20260506024813 | 50 | 96 | 0.0 | 0.0 | 0.00 | 0.08 | 0.08 | 62 | 1009.3 |
| 20260506024310 | 50 | 96 | 0.0 | 0.0 | 0.00 | 0.08 | 0.08 | 62 | 1009.3 |
| 20260506023806 | 50 | 95 | 0.0 | 0.0 | 0.00 | 0.08 | 0.08 | 64 | 1009.2 |
| 20260506023303 | 50 | 97 | 0.0 | 0.0 | 0.00 | 0.08 | 0.08 | 63 | 1009.3 |
| 20260506022800 | 50 | 97 | 0.0 | 0.0 | 0.00 | 0.08 | 0.08 | 63 | 1009.7 |
| 20260506022258 | 50 | 111 | 0.0 | 0.0 | 0.00 | 0.08 | 0.08 | 61 | 1009.4 |
| 20260506021756 | 50 | 97 | 0.0 | 0.0 | 0.00 | 0.08 | 0.08 | 60 | 1009.2 |
| 20260506021252 | 50 | 97 | 0.0 | 0.0 | 0.00 | 0.08 | 0.08 | 60 | 1009.0 |
| 20260506020749 | 50 | 97 | 0.0 | 0.0 | 0.00 | 0.08 | 0.08 | 62 | 1009.1 |
| 20260506020247 | 50 | 101 | 0.0 | 0.0 | 0.00 | 0.08 | 0.08 | 63 | 1009.0 |
| 20260506015744 | 50 | 101 | 0.0 | 0.0 | 0.00 | 0.08 | 0.08 | 60 | 1009.1 |
| 20260506015242 | 50 | 91 | 0.0 | 0.0 | 0.00 | 0.08 | 0.08 | 62 | 1008.7 |
| 20260506014738 | 50 | 90 | 0.0 | 0.0 | 0.00 | 0.08 | 0.08 | 60 | 1008.4 |
| 20260506014235 | 51 | 89 | 0.0 | 0.0 | 0.00 | 0.08 | 0.08 | 60 | 1008.4 |
| 20260506013732 | 51 | 88 | 0.0 | 0.0 | 0.00 | 0.08 | 0.08 | 62 | 1008.6 |
| 20260506013229 | 51 | 104 | 0.0 | 0.0 | 0.00 | 0.08 | 0.08 | 58 | 1008.6 |
| 20260506012725 | 51 | 99 | 0.0 | 0.0 | 0.00 | 0.08 | 0.08 | 57 | 1008.6 |
| 20260506012223 | 52 | 88 | 0.0 | 0.0 | 0.00 | 0.08 | 0.08 | 58 | 1008.3 |
| 20260506011720 | 52 | 86 | 0.0 | 0.0 | 0.00 | 0.08 | 0.08 | 58 | 1008.2 |
| 20260506011216 | 52 | 84 | 0.0 | 1.0 | 0.00 | 0.08 | 0.08 | 57 | 1008.2 |
| 20260506010715 | 52 | 86 | 0.0 | 1.0 | 0.00 | 0.08 | 0.08 | 55 | 1008.2 |
| 20260506010211 | 52 | 87 | 0.0 | 0.0 | 0.00 | 0.08 | 0.08 | 55 | 1008.4 |
| 20260506005709 | 52 | 80 | 0.0 | 1.0 | 0.00 | 0.08 | 0.08 | 56 | 1008.1 |
| 20260506005205 | 53 | 87 | 0.0 | 1.0 | 0.00 | 0.08 | 0.08 | 54 | 1008.2 |
| 20260506004701 | 53 | 83 | 0.0 | 1.0 | 0.00 | 0.08 | 0.08 | 50 | 1008.1 |
| 20260506004159 | 53 | 129 | 1.0 | 1.0 | 0.00 | 0.08 | 0.08 | 50 | 1008.0 |
| 20260506003655 | 53 | 80 | 0.0 | 1.0 | 0.00 | 0.08 | 0.08 | 49 | 1007.9 |
| 20260506003151 | 53 | 87 | 1.0 | 2.0 | 0.00 | 0.08 | 0.08 | 48 | 1007.9 |
| 20260506002647 | 53 | 54 | 1.0 | 2.0 | 0.00 | 0.08 | 0.08 | 49 | 1007.6 |
| 20260506002143 | 53 | 86 | 1.0 | 2.0 | 0.00 | 0.08 | 0.08 | 47 | 1007.8 |
| 20260506001639 | 53 | 74 | 1.0 | 1.0 | 0.00 | 0.08 | 0.08 | 46 | 1007.7 |
| 20260506001137 | 54 | 98 | 0.0 | 1.0 | 0.00 | 0.08 | 0.08 | 49 | 1007.8 |
| 20260506000634 | 54 | 46 | 1.0 | 5.0 | 0.00 | 0.08 | 0.08 | 47 | 1008.1 |
| 20260506000131 | 54 | 46 | 1.0 | 3.0 | 0.00 | 0.08 | 0.08 | 48 | 1007.8 |
| 20260505235629 | 54 | 71 | 1.0 | 3.0 | 0.00 | 0.08 | 0.08 | 47 | 1007.8 |
| 20260505235126 | 54 | 66 | 1.0 | 2.0 | 0.00 | 0.08 | 0.08 | 50 | 1007.7 |
| 20260505234617 | 54 | 58 | 1.0 | 2.0 | 0.00 | 0.08 | 0.08 | 47 | 1007.9 |
| 20260505234114 | 54 | 70 | 1.0 | 2.0 | 0.00 | 0.08 | 0.08 | 46 | 1007.6 |
| 20260505233612 | 54 | 136 | 0.0 | 2.0 | 0.00 | 0.08 | 0.08 | 49 | 1007.8 |
| 20260505233109 | 54 | 71 | 1.0 | 3.0 | 0.00 | 0.08 | 0.08 | 45 | 1007.8 |
| 20260505232607 | 54 | 261 | 2.0 | 3.0 | 0.00 | 0.08 | 0.08 | 47 | 1008.0 |
| 20260505232104 | 54 | 32 | 1.0 | 3.0 | 0.00 | 0.08 | 0.08 | 44 | 1008.0 |
| 20260505231601 | 55 | 28 | 2.0 | 2.0 | 0.00 | 0.08 | 0.08 | 46 | 1008.1 |
| 20260505231059 | 55 | 115 | 1.0 | 2.0 | 0.00 | 0.08 | 0.08 | 43 | 1007.9 |
| 20260505230557 | 55 | 75 | 0.0 | 2.0 | 0.00 | 0.08 | 0.08 | 41 | 1007.8 |
| 20260505230053 | 55 | 353 | 3.0 | 3.0 | 0.00 | 0.08 | 0.08 | 42 | 1008.2 |
| 20260505225550 | 55 | 54 | 2.0 | 2.0 | 0.00 | 0.08 | 0.08 | 48 | 1007.9 |
| 20260505225046 | 55 | 56 | 1.0 | 2.0 | 0.00 | 0.08 | 0.08 | 44 | 1008.1 |
| 20260505224543 | 55 | 264 | 3.0 | 3.0 | 0.00 | 0.08 | 0.08 | 45 | 1008.1 |
| 20260505224040 | 55 | 80 | 2.0 | 5.0 | 0.00 | 0.08 | 0.08 | 44 | 1008.5 |
| 20260505223537 | 55 | 9 | 1.0 | 5.0 | 0.00 | 0.08 | 0.08 | 46 | 1008.2 |
| 20260505223033 | 55 | 55 | 2.0 | 3.0 | 0.00 | 0.08 | 0.08 | 42 | 1008.2 |
| 20260505222530 | 55 | 289 | 2.0 | 3.0 | 0.00 | 0.08 | 0.08 | 42 | 1008.3 |
| 20260505222026 | 55 | 297 | 3.0 | 3.0 | 0.00 | 0.08 | 0.08 | 42 | 1008.3 |
| 20260505221523 | 56 | 260 | 2.0 | 3.0 | 0.00 | 0.08 | 0.08 | 48 | 1008.4 |
| 20260505221020 | 56 | 348 | 3.0 | 5.0 | 0.00 | 0.08 | 0.08 | 43 | 1008.1 |
| 20260505220517 | 56 | 26 | 1.0 | 2.0 | 0.00 | 0.08 | 0.08 | 44 | 1008.3 |
| 20260505220015 | 55 | 277 | 2.0 | 5.0 | 0.00 | 0.08 | 0.08 | 40 | 1008.3 |
| 20260505215513 | 55 | 187 | 1.0 | 2.0 | 0.00 | 0.08 | 0.08 | 42 | 1008.6 |
| 20260505215010 | 55 | 76 | 1.0 | 2.0 | 0.00 | 0.08 | 0.08 | 44 | 1008.6 |
| 20260505214508 | 55 | 105 | 1.0 | 3.0 | 0.00 | 0.08 | 0.08 | 44 | 1008.3 |
| 20260505214004 | 55 | 79 | 1.0 | 2.0 | 0.00 | 0.08 | 0.08 | 46 | 1008.5 |
| 20260505213503 | 55 | 277 | 2.0 | 2.0 | 0.00 | 0.08 | 0.08 | 47 | 1008.4 |
| 20260505212958 | 55 | 267 | 3.0 | 3.0 | 0.00 | 0.08 | 0.08 | 40 | 1008.3 |
| 20260505212455 | 56 | 315 | 1.0 | 5.0 | 0.00 | 0.08 | 0.08 | 45 | 1008.3 |
| 20260505211952 | 56 | 310 | 2.0 | 3.0 | 0.00 | 0.08 | 0.08 | 42 | 1008.6 |
| 20260505211449 | 55 | 167 | 1.0 | 5.0 | 0.00 | 0.08 | 0.08 | 40 | 1008.4 |
| 20260505210945 | 55 | 71 | 2.0 | 5.0 | 0.00 | 0.08 | 0.08 | 42 | 1008.5 |
| 20260505210443 | 55 | 132 | 1.0 | 5.0 | 0.00 | 0.08 | 0.08 | 42 | 1008.4 |
| 20260505205939 | 55 | 275 | 3.0 | 3.0 | 0.00 | 0.08 | 0.08 | 40 | 1008.3 |
| 20260505205438 | 55 | 254 | 3.0 | 3.0 | 0.00 | 0.08 | 0.08 | 42 | 1008.4 |
| 20260505204934 | 55 | 78 | 2.0 | 3.0 | 0.00 | 0.08 | 0.08 | 44 | 1008.4 |
| 20260505204432 | 55 | 293 | 3.0 | 3.0 | 0.00 | 0.08 | 0.08 | 45 | 1008.4 |
| 20260505203929 | 55 | 258 | 2.0 | 5.0 | 0.00 | 0.08 | 0.08 | 42 | 1008.5 |
| 20260505203426 | 55 | 261 | 4.0 | 5.0 | 0.00 | 0.08 | 0.08 | 40 | 1008.7 |
| 20260505202922 | 55 | 77 | 3.0 | 3.0 | 0.00 | 0.08 | 0.08 | 42 | 1008.5 |
| 20260505202418 | 55 | 3 | 5.0 | 6.0 | 0.00 | 0.08 | 0.08 | 39 | 1008.4 |
| 20260505201915 | 55 | 233 | 2.0 | 5.0 | 0.00 | 0.08 | 0.08 | 42 | 1008.7 |
| 20260505201412 | 55 | 157 | 2.0 | 5.0 | 0.00 | 0.08 | 0.08 | 42 | 1008.6 |
| 20260505200910 | 55 | 307 | 2.0 | 3.0 | 0.00 | 0.08 | 0.08 | 41 | 1008.6 |
| 20260505200407 | 55 | 40 | 3.0 | 6.0 | 0.00 | 0.08 | 0.08 | 44 | 1008.7 |
| 20260505195902 | 55 | 228 | 3.0 | 3.0 | 0.00 | 0.08 | 0.08 | 42 | 1008.8 |
| 20260505195400 | 56 | 78 | 1.0 | 3.0 | 0.00 | 0.08 | 0.08 | 46 | 1008.6 |
| 20260505194857 | 55 | 85 | 1.0 | 1.0 | 0.00 | 0.08 | 0.08 | 43 | 1008.8 |
| 20260505194355 | 55 | 5 | 2.0 | 5.0 | 0.00 | 0.08 | 0.08 | 40 | 1008.7 |
| 20260505193855 | 55 | 354 | 1.0 | 5.0 | 0.00 | 0.08 | 0.08 | 41 | 1008.5 |
| 20260505193353 | 56 | 70 | 2.0 | 2.0 | 0.00 | 0.08 | 0.08 | 40 | 1008.7 |
| 20260505192850 | 55 | 136 | 1.0 | 2.0 | 0.00 | 0.08 | 0.08 | 42 | 1008.8 |
| 20260505192348 | 55 | 5 | 1.0 | 2.0 | 0.00 | 0.08 | 0.08 | 40 | 1008.8 |
| 20260505191845 | 56 | 338 | 3.0 | 3.0 | 0.00 | 0.08 | 0.08 | 41 | 1008.7 |
| 20260505191344 | 56 | 48 | 1.0 | 2.0 | 0.00 | 0.08 | 0.08 | 48 | 1008.9 |
| 20260505190840 | 56 | 93 | 1.0 | 3.0 | 0.00 | 0.08 | 0.08 | 42 | 1008.9 |
| 20260505190336 | 55 | 298 | 2.0 | 2.0 | 0.00 | 0.08 | 0.08 | 44 | 1008.9 |
| 20260505185832 | 55 | 64 | 1.0 | 2.0 | 0.00 | 0.08 | 0.08 | 47 | 1009.0 |
| 20260505185328 | 56 | 18 | 5.0 | 6.0 | 0.00 | 0.08 | 0.08 | 44 | 1008.9 |
| 20260505184824 | 55 | 83 | 1.0 | 2.0 | 0.00 | 0.08 | 0.08 | 46 | 1008.9 |
| 20260505184322 | 55 | 144 | 1.0 | 5.0 | 0.00 | 0.08 | 0.08 | 44 | 1009.0 |
| 20260505183819 | 56 | 4 | 1.0 | 6.0 | 0.00 | 0.08 | 0.08 | 48 | 1008.8 |
| 20260505183316 | 56 | 308 | 2.0 | 5.0 | 0.00 | 0.08 | 0.08 | 47 | 1009.1 |
| 20260505182812 | 56 | 69 | 1.0 | 6.0 | 0.00 | 0.08 | 0.08 | 45 | 1008.9 |
| 20260505182309 | 55 | 42 | 2.0 | 3.0 | 0.00 | 0.08 | 0.08 | 42 | 1008.9 |
| 20260505181806 | 56 | 91 | 2.0 | 5.0 | 0.00 | 0.08 | 0.08 | 45 | 1008.8 |
| 20260505181303 | 57 | 59 | 1.0 | 2.0 | 0.00 | 0.08 | 0.08 | 45 | 1008.7 |
| 20260505180800 | 56 | 40 | 1.0 | 3.0 | 0.00 | 0.08 | 0.08 | 46 | 1008.9 |
| 20260505180256 | 56 | 29 | 2.0 | 3.0 | 0.00 | 0.08 | 0.08 | 44 | 1008.8 |
| 20260505175752 | 56 | 7 | 7.0 | 8.0 | 0.00 | 0.08 | 0.08 | 44 | 1008.8 |
| 20260505175249 | 56 | 269 | 5.0 | 7.0 | 0.00 | 0.08 | 0.08 | 44 | 1008.8 |
| 20260505174746 | 56 | 65 | 2.0 | 5.0 | 0.00 | 0.08 | 0.08 | 47 | 1008.9 |
| 20260505174243 | 56 | 264 | 3.0 | 5.0 | 0.00 | 0.08 | 0.08 | 44 | 1008.7 |
| 20260505173739 | 56 | 21 | 4.0 | 5.0 | 0.00 | 0.08 | 0.08 | 43 | 1008.4 |
| 20260505173236 | 56 | 341 | 4.0 | 5.0 | 0.00 | 0.08 | 0.08 | 44 | 1008.6 |
| 20260505172733 | 57 | 174 | 3.0 | 5.0 | 0.00 | 0.08 | 0.08 | 43 | 1008.8 |
| 20260505172230 | 56 | 80 | 1.0 | 6.0 | 0.00 | 0.08 | 0.08 | 47 | 1008.7 |
| 20260505171729 | 57 | 11 | 3.0 | 5.0 | 0.00 | 0.08 | 0.08 | 48 | 1008.6 |
| 20260505171227 | 56 | 85 | 2.0 | 3.0 | 0.00 | 0.08 | 0.08 | 45 | 1008.4 |
| 20260505170723 | 57 | 292 | 3.0 | 5.0 | 0.00 | 0.08 | 0.08 | 41 | 1008.3 |
| 20260505170220 | 57 | 22 | 3.0 | 5.0 | 0.00 | 0.08 | 0.08 | 45 | 1008.5 |
| 20260505165716 | 57 | 268 | 4.0 | 5.0 | 0.00 | 0.08 | 0.08 | 45 | 1008.3 |
| 20260505165212 | 58 | 195 | 1.0 | 2.0 | 0.00 | 0.08 | 0.08 | 43 | 1008.3 |
| 20260505164707 | 57 | 327 | 3.0 | 5.0 | 0.00 | 0.08 | 0.08 | 43 | 1008.2 |
| 20260505164205 | 57 | 169 | 2.0 | 5.0 | 0.00 | 0.08 | 0.08 | 42 | 1008.2 |
| 20260505163703 | 57 | 20 | 3.0 | 5.0 | 0.00 | 0.08 | 0.08 | 42 | 1008.3 |
| 20260505163201 | 57 | 76 | 2.0 | 7.0 | 0.00 | 0.08 | 0.08 | 44 | 1008.4 |
| 20260505162658 | 56 | 3 | 1.0 | 5.0 | 0.00 | 0.08 | 0.08 | 44 | 1008.6 |
| 20260505162155 | 57 | 26 | 2.0 | 6.0 | 0.00 | 0.08 | 0.08 | 47 | 1008.5 |
| 20260505161652 | 55 | 26 | 3.0 | 5.0 | 0.00 | 0.08 | 0.08 | 47 | 1008.6 |
| 20260505161149 | 55 | 82 | 1.0 | 3.0 | 0.00 | 0.08 | 0.08 | 53 | 1008.5 |
| 20260505160647 | 55 | 111 | 1.0 | 3.0 | 0.00 | 0.08 | 0.08 | 51 | 1008.5 |
| 20260505160144 | 54 | 69 | 1.0 | 2.0 | 0.00 | 0.08 | 0.08 | 53 | 1008.4 |
| 20260505153124 | 54 | 26 | 3.0 | 5.0 | 0.00 | 0.08 | 0.08 | 55 | 1008.1 |
| 20260505152620 | 54 | 265 | 2.0 | 3.0 | 0.00 | 0.08 | 0.08 | 55 | 1008.0 |
| 20260505152116 | 53 | 340 | 2.0 | 5.0 | 0.00 | 0.08 | 0.08 | 62 | 1008.1 |
| 20260505151611 | 53 | 266 | 2.0 | 3.0 | 0.00 | 0.08 | 0.08 | 54 | 1008.1 |
| 20260505151109 | 53 | 274 | 3.0 | 3.0 | 0.00 | 0.08 | 0.08 | 57 | 1008.2 |
| 20260505150605 | 52 | 273 | 2.0 | 3.0 | 0.00 | 0.08 | 0.08 | 57 | 1008.0 |
| 20260505140531 | 48 | 48 | 1.0 | 2.0 | 0.00 | 0.08 | 0.08 | 82 | 1008.6 |
| 20260505124944 | 44 | 90 | 0.0 | 0.0 | 0.12 | 0.08 | 0.08 | 90 | 1008.1 |
| 20260505124441 | 45 | 80 | 0.0 | 0.0 | 0.07 | 0.07 | 0.07 | 89 | 1008.5 |
| 20260505123937 | 45 | 97 | 0.0 | 0.0 | 0.05 | 0.06 | 0.06 | 89 | 1008.3 |
| 20260505123434 | 45 | 86 | 1.0 | 1.0 | 0.12 | 0.06 | 0.06 | 88 | 1008.9 |
| 20260505122929 | 45 | 131 | 1.0 | 1.0 | 0.07 | 0.05 | 0.05 | 87 | 1008.8 |
| 20260505122427 | 45 | 93 | 0.0 | 0.0 | 0.07 | 0.04 | 0.04 | 86 | 1008.4 |
| 20260505121924 | 46 | 82 | 0.0 | 0.0 | 0.00 | 0.03 | 0.03 | 84 | 1008.4 |
| 20260505121421 | 46 | 84 | 0.0 | 0.0 | 0.05 | 0.03 | 0.03 | 81 | 1008.3 |
| 20260505120916 | 46 | 73 | 0.0 | 1.0 | 0.05 | 0.03 | 0.03 | 82 | 1008.3 |
| 20260505120413 | 47 | 84 | 0.0 | 0.0 | 0.07 | 0.02 | 0.02 | 81 | 1008.7 |
| 20260505115912 | 47 | 51 | 1.0 | 2.0 | 0.07 | 0.02 | 0.02 | 80 | 1008.8 |
| 20260505115409 | 48 | 69 | 1.0 | 2.0 | 0.05 | 0.01 | 0.01 | 77 | 1008.6 |
| 20260505114907 | 48 | 95 | 1.0 | 2.0 | 0.05 | 0.01 | 0.01 | 74 | 1008.5 |
| 20260505114403 | 48 | 29 | 0.0 | 0.0 | 0.00 | 0.00 | 0.00 | 73 | 1008.1 |
| 20260505113859 | 49 | 79 | 0.0 | 0.0 | 0.00 | 0.00 | 0.00 | 69 | 1007.7 |
| 20260505113356 | 49 | 93 | 0.0 | 0.0 | 0.00 | 0.00 | 0.00 | 67 | 1007.4 |
| 20260505112852 | 49 | 80 | 1.0 | 1.0 | 0.00 | 0.00 | 0.00 | 66 | 1007.4 |
| 20260505112350 | 50 | 54 | 1.0 | 2.0 | 0.00 | 0.00 | 0.00 | 63 | 1007.6 |
| 20260505111845 | 50 | 74 | 1.0 | 2.0 | 0.00 | 0.00 | 0.00 | 63 | 1006.8 |
| 20260505111341 | 50 | 76 | 0.0 | 1.0 | 0.00 | 0.00 | 0.00 | 63 | 1006.4 |
| 20260505110837 | 50 | 95 | 0.0 | 1.0 | 0.00 | 0.00 | 0.00 | 64 | 1006.0 |
| 20260505110334 | 50 | 87 | 0.0 | 1.0 | 0.00 | 0.00 | 0.00 | 62 | 1006.1 |
| 20260505101809 | 51 | 11 | 0.0 | 0.0 | 0.00 | 0.00 | 0.00 | 62 | 1005.4 |
| 20260505101305 | 51 | 87 | 0.0 | 0.0 | 0.00 | 0.00 | 0.00 | 60 | 1005.1 |
| 20260505100801 | 51 | 89 | 0.0 | 1.0 | 0.00 | 0.00 | 0.00 | 62 | 1005.3 |
| 20260505100258 | 51 | 41 | 1.0 | 1.0 | 0.00 | 0.00 | 0.00 | 60 | 1005.4 |
| 20260505095753 | 52 | 88 | 0.0 | 0.0 | 0.00 | 0.00 | 0.00 | 58 | 1005.5 |
| 20260505095251 | 52 | 80 | 1.0 | 3.0 | 0.00 | 0.00 | 0.00 | 57 | 1005.4 |
| 20260505094746 | 52 | 81 | 0.0 | 1.0 | 0.00 | 0.00 | 0.00 | 60 | 1005.5 |
| 20260505094244 | 52 | 77 | 1.0 | 2.0 | 0.00 | 0.00 | 0.00 | 57 | 1005.6 |
| 20260505093739 | 52 | 64 | 2.0 | 3.0 | 0.00 | 0.00 | 0.00 | 56 | 1005.8 |
| 20260505093237 | 53 | 74 | 0.0 | 1.0 | 0.00 | 0.00 | 0.00 | 56 | 1005.6 |
| 20260505092734 | 53 | 81 | 0.0 | 5.0 | 0.00 | 0.00 | 0.00 | 54 | 1005.5 |
| 20260505092233 | 53 | 85 | 0.0 | 2.0 | 0.00 | 0.00 | 0.00 | 57 | 1005.7 |
| 20260505091729 | 53 | 78 | 1.0 | 3.0 | 0.00 | 0.00 | 0.00 | 58 | 1005.8 |
| 20260505091228 | 53 | 33 | 1.0 | 2.0 | 0.00 | 0.00 | 0.00 | 60 | 1005.6 |
| 20260505090725 | 54 | 97 | 0.0 | 2.0 | 0.00 | 0.00 | 0.00 | 60 | 1005.4 |
| 20260505090223 | 54 | 5 | 4.0 | 5.0 | 0.00 | 0.00 | 0.00 | 60 | 1005.1 |
| 20260505085720 | 54 | 58 | 1.0 | 2.0 | 0.00 | 0.00 | 0.00 | 59 | 1004.9 |
| 20260505085218 | 54 | 259 | 2.0 | 2.0 | 0.00 | 0.00 | 0.00 | 58 | 1004.9 |
| 20260505084715 | 55 | 348 | 2.0 | 3.0 | 0.00 | 0.00 | 0.00 | 57 | 1004.6 |
| 20260505084214 | 55 | 353 | 3.0 | 5.0 | 0.00 | 0.00 | 0.00 | 56 | 1004.5 |
| 20260505083711 | 55 | 43 | 0.0 | 3.0 | 0.00 | 0.00 | 0.00 | 57 | 1004.4 |
| 20260505083208 | 55 | 58 | 2.0 | 3.0 | 0.00 | 0.00 | 0.00 | 56 | 1004.1 |
| 20260505082703 | 55 | 54 | 2.0 | 3.0 | 0.00 | 0.00 | 0.00 | 56 | 1004.2 |
| 20260505082201 | 55 | 63 | 1.0 | 2.0 | 0.00 | 0.00 | 0.00 | 55 | 1003.7 |
| 20260505081656 | 55 | 23 | 2.0 | 3.0 | 0.00 | 0.00 | 0.00 | 55 | 1003.5 |
| 20260505081154 | 55 | 51 | 2.0 | 2.0 | 0.00 | 0.00 | 0.00 | 56 | 1003.5 |
| 20260505080651 | 55 | 28 | 1.0 | 2.0 | 0.00 | 0.00 | 0.00 | 54 | 1003.3 |
| 20260505080147 | 55 | 14 | 2.0 | 3.0 | 0.00 | 0.00 | 0.00 | 54 | 1003.3 |
| 20260505075643 | 55 | 352 | 2.0 | 2.0 | 0.00 | 0.00 | 0.00 | 55 | 1003.2 |
| 20260505075140 | 55 | 17 | 1.0 | 3.0 | 0.00 | 0.00 | 0.00 | 56 | 1003.0 |
| 20260505074637 | 55 | 76 | 1.0 | 2.0 | 0.00 | 0.00 | 0.00 | 56 | 1003.0 |
| 20260505074134 | 56 | 18 | 2.0 | 3.0 | 0.00 | 0.00 | 0.00 | 55 | 1003.0 |
| 20260505073631 | 56 | 71 | 2.0 | 2.0 | 0.00 | 0.00 | 0.00 | 55 | 1002.8 |
| 20260505073129 | 56 | 78 | 1.0 | 3.0 | 0.00 | 0.00 | 0.00 | 56 | 1002.7 |
| 20260505072624 | 56 | 19 | 3.0 | 3.0 | 0.00 | 0.00 | 0.00 | 56 | 1002.8 |
| 20260505072122 | 56 | 61 | 2.0 | 2.0 | 0.00 | 0.00 | 0.00 | 57 | 1002.8 |
| 20260505071617 | 56 | 40 | 3.0 | 3.0 | 0.00 | 0.00 | 0.00 | 57 | 1002.7 |
| 20260505071115 | 56 | 76 | 1.0 | 3.0 | 0.00 | 0.00 | 0.00 | 57 | 1002.6 |
| 20260505070612 | 56 | 86 | 0.0 | 2.0 | 0.00 | 0.00 | 0.00 | 56 | 1002.6 |
| 20260505070108 | 56 | 66 | 2.0 | 2.0 | 0.00 | 0.00 | 0.00 | 58 | 1002.5 |
| 20260505065604 | 55 | 83 | 1.0 | 1.0 | 0.00 | 0.00 | 0.00 | 58 | 1002.3 |
| 20260505065101 | 56 | 85 | 0.0 | 0.0 | 0.00 | 0.00 | 0.00 | 60 | 1002.3 |
| 20260505064558 | 56 | 69 | 1.0 | 1.0 | 0.00 | 0.00 | 0.00 | 58 | 1002.3 |
| 20260505064057 | 57 | 77 | 1.0 | 1.0 | 0.00 | 0.00 | 0.00 | 57 | 1002.5 |
| 20260505063553 | 57 | 84 | 1.0 | 1.0 | 0.00 | 0.00 | 0.00 | 55 | 1002.2 |
| 20260505063049 | 57 | 179 | 2.0 | 2.0 | 0.00 | 0.00 | 0.00 | 55 | 1002.3 |
| 20260505062546 | 58 | 51 | 2.0 | 3.0 | 0.00 | 0.00 | 0.00 | 52 | 1002.4 |
| 20260505062043 | 58 | 44 | 2.0 | 3.0 | 0.00 | 0.00 | 0.00 | 52 | 1002.2 |
| 20260505061540 | 58 | 4 | 2.0 | 5.0 | 0.00 | 0.00 | 0.00 | 52 | 1002.3 |
| 20260505061038 | 58 | 20 | 1.0 | 3.0 | 0.00 | 0.00 | 0.00 | 54 | 1002.1 |
| 20260505060536 | 58 | 77 | 2.0 | 2.0 | 0.00 | 0.00 | 0.00 | 55 | 1002.0 |
| 20260505060032 | 58 | 89 | 1.0 | 2.0 | 0.00 | 0.00 | 0.00 | 55 | 1002.3 |